<?xml version="1.0"?>
<gpx xmlns="http://www.topografix.com/GPX/1/1" xmlns:xsi="http://www.w3.org/2001/XMLSchema-instance" version="1.1" creator="GPX RubyGem 1.0.0 -- http://dougfales.github.io/gpx/" xsi:schemaLocation="http://www.topografix.com/GPX/1/1 http://www.topografix.com/GPX/1/1/gpx.xsd">
  <metadata>
    <name/>
    <time>2026-05-03T23:12:33+00:00</time>
    <bound minlat="90.0" minlon="180.0" maxlat="-90.0" maxlon="-180.0"/>
  </metadata>
  <trk>
    <name/>
    <trkseg>
      <trkpt lat="38.865371" lon="-9.444865">
        <time>1970-01-01T00:00:00+00:00</time>
        <ele>80.0</ele>
      </trkpt>
      <trkpt lat="38.865341" lon="-9.444452">
        <time>1970-01-01T00:00:00+00:00</time>
        <ele>83.0</ele>
      </trkpt>
      <trkpt lat="38.865334" lon="-9.444129">
        <time>1970-01-01T00:00:00+00:00</time>
        <ele>85.0</ele>
      </trkpt>
      <trkpt lat="38.865678" lon="-9.443337">
        <time>1970-01-01T00:00:00+00:00</time>
        <ele>95.0</ele>
      </trkpt>
      <trkpt lat="38.865793" lon="-9.443159">
        <time>1970-01-01T00:00:00+00:00</time>
        <ele>96.0</ele>
      </trkpt>
      <trkpt lat="38.866024" lon="-9.44298">
        <time>1970-01-01T00:00:00+00:00</time>
        <ele>97.0</ele>
      </trkpt>
      <trkpt lat="38.866765" lon="-9.442468">
        <time>1970-01-01T00:00:00+00:00</time>
        <ele>98.0</ele>
      </trkpt>
      <trkpt lat="38.867267" lon="-9.441807">
        <time>1970-01-01T00:00:00+00:00</time>
        <ele>97.0</ele>
      </trkpt>
      <trkpt lat="38.867448" lon="-9.44162">
        <time>1970-01-01T00:00:00+00:00</time>
        <ele>96.0</ele>
      </trkpt>
      <trkpt lat="38.867802" lon="-9.441257">
        <time>1970-01-01T00:00:00+00:00</time>
        <ele>95.0</ele>
      </trkpt>
      <trkpt lat="38.867876" lon="-9.44115">
        <time>1970-01-01T00:00:00+00:00</time>
        <ele>96.0</ele>
      </trkpt>
      <trkpt lat="38.867978" lon="-9.441229">
        <time>1970-01-01T00:00:00+00:00</time>
        <ele>97.0</ele>
      </trkpt>
      <trkpt lat="38.868155" lon="-9.441569">
        <time>1970-01-01T00:00:00+00:00</time>
        <ele>99.0</ele>
      </trkpt>
      <trkpt lat="38.868358" lon="-9.441815">
        <time>1970-01-01T00:00:00+00:00</time>
        <ele>100.0</ele>
      </trkpt>
      <trkpt lat="38.868397" lon="-9.44185">
        <time>1970-01-01T00:00:00+00:00</time>
        <ele>100.0</ele>
      </trkpt>
      <trkpt lat="38.868731" lon="-9.442011">
        <time>1970-01-01T00:00:00+00:00</time>
        <ele>99.0</ele>
      </trkpt>
      <trkpt lat="38.869226" lon="-9.442242">
        <time>1970-01-01T00:00:00+00:00</time>
        <ele>99.0</ele>
      </trkpt>
      <trkpt lat="38.869376" lon="-9.442296">
        <time>1970-01-01T00:00:00+00:00</time>
        <ele>98.0</ele>
      </trkpt>
      <trkpt lat="38.869698" lon="-9.442314">
        <time>1970-01-01T00:00:00+00:00</time>
        <ele>99.0</ele>
      </trkpt>
      <trkpt lat="38.870061" lon="-9.441834">
        <time>1970-01-01T00:00:00+00:00</time>
        <ele>104.0</ele>
      </trkpt>
      <trkpt lat="38.870483" lon="-9.441349">
        <time>1970-01-01T00:00:00+00:00</time>
        <ele>108.0</ele>
      </trkpt>
      <trkpt lat="38.870513" lon="-9.441343">
        <time>1970-01-01T00:00:00+00:00</time>
        <ele>108.0</ele>
      </trkpt>
      <trkpt lat="38.870661" lon="-9.441236">
        <time>1970-01-01T00:00:00+00:00</time>
        <ele>109.0</ele>
      </trkpt>
      <trkpt lat="38.871285" lon="-9.440684">
        <time>1970-01-01T00:00:00+00:00</time>
        <ele>109.0</ele>
      </trkpt>
      <trkpt lat="38.871707" lon="-9.440249">
        <time>1970-01-01T00:00:00+00:00</time>
        <ele>108.0</ele>
      </trkpt>
      <trkpt lat="38.871725" lon="-9.440002">
        <time>1970-01-01T00:00:00+00:00</time>
        <ele>107.0</ele>
      </trkpt>
      <trkpt lat="38.871904" lon="-9.439685">
        <time>1970-01-01T00:00:00+00:00</time>
        <ele>107.0</ele>
      </trkpt>
      <trkpt lat="38.872" lon="-9.439468">
        <time>1970-01-01T00:00:00+00:00</time>
        <ele>107.0</ele>
      </trkpt>
      <trkpt lat="38.872218" lon="-9.43872">
        <time>1970-01-01T00:00:00+00:00</time>
        <ele>108.0</ele>
      </trkpt>
      <trkpt lat="38.872436" lon="-9.438227">
        <time>1970-01-01T00:00:00+00:00</time>
        <ele>108.0</ele>
      </trkpt>
      <trkpt lat="38.872588" lon="-9.437796">
        <time>1970-01-01T00:00:00+00:00</time>
        <ele>107.0</ele>
      </trkpt>
      <trkpt lat="38.872623" lon="-9.437637">
        <time>1970-01-01T00:00:00+00:00</time>
        <ele>107.0</ele>
      </trkpt>
      <trkpt lat="38.873137" lon="-9.436773">
        <time>1970-01-01T00:00:00+00:00</time>
        <ele>109.0</ele>
      </trkpt>
      <trkpt lat="38.874365" lon="-9.434592">
        <time>1970-01-01T00:00:00+00:00</time>
        <ele>118.0</ele>
      </trkpt>
      <trkpt lat="38.874977" lon="-9.435781">
        <time>1970-01-01T00:00:00+00:00</time>
        <ele>116.0</ele>
      </trkpt>
      <trkpt lat="38.875303" lon="-9.435239">
        <time>1970-01-01T00:00:00+00:00</time>
        <ele>115.0</ele>
      </trkpt>
      <trkpt lat="38.876439" lon="-9.433259">
        <time>1970-01-01T00:00:00+00:00</time>
        <ele>112.0</ele>
      </trkpt>
      <trkpt lat="38.876987" lon="-9.432379">
        <time>1970-01-01T00:00:00+00:00</time>
        <ele>107.0</ele>
      </trkpt>
      <trkpt lat="38.87704" lon="-9.432229">
        <time>1970-01-01T00:00:00+00:00</time>
        <ele>108.0</ele>
      </trkpt>
      <trkpt lat="38.877241" lon="-9.432592">
        <time>1970-01-01T00:00:00+00:00</time>
        <ele>107.0</ele>
      </trkpt>
      <trkpt lat="38.877225" lon="-9.432699">
        <time>1970-01-01T00:00:00+00:00</time>
        <ele>107.0</ele>
      </trkpt>
      <trkpt lat="38.877229" lon="-9.432984">
        <time>1970-01-01T00:00:00+00:00</time>
        <ele>106.0</ele>
      </trkpt>
      <trkpt lat="38.877305" lon="-9.433395">
        <time>1970-01-01T00:00:00+00:00</time>
        <ele>106.0</ele>
      </trkpt>
      <trkpt lat="38.877396" lon="-9.43346">
        <time>1970-01-01T00:00:00+00:00</time>
        <ele>105.0</ele>
      </trkpt>
      <trkpt lat="38.877418" lon="-9.433544">
        <time>1970-01-01T00:00:00+00:00</time>
        <ele>105.0</ele>
      </trkpt>
      <trkpt lat="38.877363" lon="-9.433572">
        <time>1970-01-01T00:00:00+00:00</time>
        <ele>106.0</ele>
      </trkpt>
      <trkpt lat="38.87733" lon="-9.433675">
        <time>1970-01-01T00:00:00+00:00</time>
        <ele>106.0</ele>
      </trkpt>
      <trkpt lat="38.877487" lon="-9.434016">
        <time>1970-01-01T00:00:00+00:00</time>
        <ele>106.0</ele>
      </trkpt>
      <trkpt lat="38.877647" lon="-9.434277">
        <time>1970-01-01T00:00:00+00:00</time>
        <ele>106.0</ele>
      </trkpt>
      <trkpt lat="38.878099" lon="-9.434838">
        <time>1970-01-01T00:00:00+00:00</time>
        <ele>105.0</ele>
      </trkpt>
      <trkpt lat="38.878088" lon="-9.435048">
        <time>1970-01-01T00:00:00+00:00</time>
        <ele>105.0</ele>
      </trkpt>
      <trkpt lat="38.878317" lon="-9.436295">
        <time>1970-01-01T00:00:00+00:00</time>
        <ele>105.0</ele>
      </trkpt>
      <trkpt lat="38.878415" lon="-9.437066">
        <time>1970-01-01T00:00:00+00:00</time>
        <ele>106.0</ele>
      </trkpt>
      <trkpt lat="38.878499" lon="-9.437491">
        <time>1970-01-01T00:00:00+00:00</time>
        <ele>106.0</ele>
      </trkpt>
      <trkpt lat="38.878419" lon="-9.437906">
        <time>1970-01-01T00:00:00+00:00</time>
        <ele>108.0</ele>
      </trkpt>
      <trkpt lat="38.878345" lon="-9.438475">
        <time>1970-01-01T00:00:00+00:00</time>
        <ele>108.0</ele>
      </trkpt>
      <trkpt lat="38.878339" lon="-9.438523">
        <time>1970-01-01T00:00:00+00:00</time>
        <ele>107.0</ele>
      </trkpt>
      <trkpt lat="38.878597" lon="-9.438976">
        <time>1970-01-01T00:00:00+00:00</time>
        <ele>105.0</ele>
      </trkpt>
      <trkpt lat="38.87868" lon="-9.439069">
        <time>1970-01-01T00:00:00+00:00</time>
        <ele>104.0</ele>
      </trkpt>
      <trkpt lat="38.879015" lon="-9.439214">
        <time>1970-01-01T00:00:00+00:00</time>
        <ele>103.0</ele>
      </trkpt>
      <trkpt lat="38.879306" lon="-9.439233">
        <time>1970-01-01T00:00:00+00:00</time>
        <ele>103.0</ele>
      </trkpt>
      <trkpt lat="38.879408" lon="-9.439275">
        <time>1970-01-01T00:00:00+00:00</time>
        <ele>102.0</ele>
      </trkpt>
      <trkpt lat="38.879513" lon="-9.439559">
        <time>1970-01-01T00:00:00+00:00</time>
        <ele>100.0</ele>
      </trkpt>
      <trkpt lat="38.879455" lon="-9.439779">
        <time>1970-01-01T00:00:00+00:00</time>
        <ele>100.0</ele>
      </trkpt>
      <trkpt lat="38.879509" lon="-9.440036">
        <time>1970-01-01T00:00:00+00:00</time>
        <ele>97.0</ele>
      </trkpt>
      <trkpt lat="38.879618" lon="-9.440171">
        <time>1970-01-01T00:00:00+00:00</time>
        <ele>95.0</ele>
      </trkpt>
      <trkpt lat="38.879553" lon="-9.440802">
        <time>1970-01-01T00:00:00+00:00</time>
        <ele>90.0</ele>
      </trkpt>
      <trkpt lat="38.879651" lon="-9.440993">
        <time>1970-01-01T00:00:00+00:00</time>
        <ele>88.0</ele>
      </trkpt>
      <trkpt lat="38.879862" lon="-9.441194">
        <time>1970-01-01T00:00:00+00:00</time>
        <ele>85.0</ele>
      </trkpt>
      <trkpt lat="38.87992" lon="-9.441357">
        <time>1970-01-01T00:00:00+00:00</time>
        <ele>84.0</ele>
      </trkpt>
      <trkpt lat="38.87984" lon="-9.441656">
        <time>1970-01-01T00:00:00+00:00</time>
        <ele>83.0</ele>
      </trkpt>
      <trkpt lat="38.879798" lon="-9.441742">
        <time>1970-01-01T00:00:00+00:00</time>
        <ele>83.0</ele>
      </trkpt>
      <trkpt lat="38.879798" lon="-9.441742">
        <time>1970-01-01T00:00:00+00:00</time>
        <ele>83.0</ele>
      </trkpt>
      <trkpt lat="38.87984" lon="-9.441656">
        <time>1970-01-01T00:00:00+00:00</time>
        <ele>83.0</ele>
      </trkpt>
      <trkpt lat="38.87992" lon="-9.441357">
        <time>1970-01-01T00:00:00+00:00</time>
        <ele>84.0</ele>
      </trkpt>
      <trkpt lat="38.879862" lon="-9.441194">
        <time>1970-01-01T00:00:00+00:00</time>
        <ele>85.0</ele>
      </trkpt>
      <trkpt lat="38.879651" lon="-9.440993">
        <time>1970-01-01T00:00:00+00:00</time>
        <ele>88.0</ele>
      </trkpt>
      <trkpt lat="38.879553" lon="-9.440802">
        <time>1970-01-01T00:00:00+00:00</time>
        <ele>90.0</ele>
      </trkpt>
      <trkpt lat="38.879618" lon="-9.440171">
        <time>1970-01-01T00:00:00+00:00</time>
        <ele>95.0</ele>
      </trkpt>
      <trkpt lat="38.879509" lon="-9.440036">
        <time>1970-01-01T00:00:00+00:00</time>
        <ele>97.0</ele>
      </trkpt>
      <trkpt lat="38.879455" lon="-9.439779">
        <time>1970-01-01T00:00:00+00:00</time>
        <ele>100.0</ele>
      </trkpt>
      <trkpt lat="38.879513" lon="-9.439559">
        <time>1970-01-01T00:00:00+00:00</time>
        <ele>100.0</ele>
      </trkpt>
      <trkpt lat="38.879408" lon="-9.439275">
        <time>1970-01-01T00:00:00+00:00</time>
        <ele>102.0</ele>
      </trkpt>
      <trkpt lat="38.879306" lon="-9.439233">
        <time>1970-01-01T00:00:00+00:00</time>
        <ele>103.0</ele>
      </trkpt>
      <trkpt lat="38.879015" lon="-9.439214">
        <time>1970-01-01T00:00:00+00:00</time>
        <ele>103.0</ele>
      </trkpt>
      <trkpt lat="38.87868" lon="-9.439069">
        <time>1970-01-01T00:00:00+00:00</time>
        <ele>104.0</ele>
      </trkpt>
      <trkpt lat="38.878597" lon="-9.438976">
        <time>1970-01-01T00:00:00+00:00</time>
        <ele>105.0</ele>
      </trkpt>
      <trkpt lat="38.878339" lon="-9.438523">
        <time>1970-01-01T00:00:00+00:00</time>
        <ele>107.0</ele>
      </trkpt>
      <trkpt lat="38.878345" lon="-9.438475">
        <time>1970-01-01T00:00:00+00:00</time>
        <ele>108.0</ele>
      </trkpt>
      <trkpt lat="38.878419" lon="-9.437906">
        <time>1970-01-01T00:00:00+00:00</time>
        <ele>108.0</ele>
      </trkpt>
      <trkpt lat="38.878499" lon="-9.437491">
        <time>1970-01-01T00:00:00+00:00</time>
        <ele>106.0</ele>
      </trkpt>
      <trkpt lat="38.878415" lon="-9.437066">
        <time>1970-01-01T00:00:00+00:00</time>
        <ele>106.0</ele>
      </trkpt>
      <trkpt lat="38.878317" lon="-9.436295">
        <time>1970-01-01T00:00:00+00:00</time>
        <ele>105.0</ele>
      </trkpt>
      <trkpt lat="38.878088" lon="-9.435048">
        <time>1970-01-01T00:00:00+00:00</time>
        <ele>105.0</ele>
      </trkpt>
      <trkpt lat="38.878099" lon="-9.434838">
        <time>1970-01-01T00:00:00+00:00</time>
        <ele>105.0</ele>
      </trkpt>
      <trkpt lat="38.877647" lon="-9.434277">
        <time>1970-01-01T00:00:00+00:00</time>
        <ele>106.0</ele>
      </trkpt>
      <trkpt lat="38.877487" lon="-9.434016">
        <time>1970-01-01T00:00:00+00:00</time>
        <ele>106.0</ele>
      </trkpt>
      <trkpt lat="38.87733" lon="-9.433675">
        <time>1970-01-01T00:00:00+00:00</time>
        <ele>106.0</ele>
      </trkpt>
      <trkpt lat="38.877363" lon="-9.433572">
        <time>1970-01-01T00:00:00+00:00</time>
        <ele>106.0</ele>
      </trkpt>
      <trkpt lat="38.877418" lon="-9.433544">
        <time>1970-01-01T00:00:00+00:00</time>
        <ele>105.0</ele>
      </trkpt>
      <trkpt lat="38.877396" lon="-9.43346">
        <time>1970-01-01T00:00:00+00:00</time>
        <ele>105.0</ele>
      </trkpt>
      <trkpt lat="38.877305" lon="-9.433395">
        <time>1970-01-01T00:00:00+00:00</time>
        <ele>106.0</ele>
      </trkpt>
      <trkpt lat="38.877229" lon="-9.432984">
        <time>1970-01-01T00:00:00+00:00</time>
        <ele>106.0</ele>
      </trkpt>
      <trkpt lat="38.877225" lon="-9.432699">
        <time>1970-01-01T00:00:00+00:00</time>
        <ele>107.0</ele>
      </trkpt>
      <trkpt lat="38.877241" lon="-9.432592">
        <time>1970-01-01T00:00:00+00:00</time>
        <ele>107.0</ele>
      </trkpt>
      <trkpt lat="38.87704" lon="-9.432229">
        <time>1970-01-01T00:00:00+00:00</time>
        <ele>108.0</ele>
      </trkpt>
      <trkpt lat="38.876987" lon="-9.432379">
        <time>1970-01-01T00:00:00+00:00</time>
        <ele>107.0</ele>
      </trkpt>
      <trkpt lat="38.876439" lon="-9.433259">
        <time>1970-01-01T00:00:00+00:00</time>
        <ele>112.0</ele>
      </trkpt>
      <trkpt lat="38.875303" lon="-9.435239">
        <time>1970-01-01T00:00:00+00:00</time>
        <ele>115.0</ele>
      </trkpt>
      <trkpt lat="38.874977" lon="-9.435781">
        <time>1970-01-01T00:00:00+00:00</time>
        <ele>116.0</ele>
      </trkpt>
      <trkpt lat="38.874365" lon="-9.434592">
        <time>1970-01-01T00:00:00+00:00</time>
        <ele>118.0</ele>
      </trkpt>
      <trkpt lat="38.873137" lon="-9.436773">
        <time>1970-01-01T00:00:00+00:00</time>
        <ele>109.0</ele>
      </trkpt>
      <trkpt lat="38.872623" lon="-9.437637">
        <time>1970-01-01T00:00:00+00:00</time>
        <ele>107.0</ele>
      </trkpt>
      <trkpt lat="38.872588" lon="-9.437796">
        <time>1970-01-01T00:00:00+00:00</time>
        <ele>107.0</ele>
      </trkpt>
      <trkpt lat="38.872436" lon="-9.438227">
        <time>1970-01-01T00:00:00+00:00</time>
        <ele>108.0</ele>
      </trkpt>
      <trkpt lat="38.872218" lon="-9.43872">
        <time>1970-01-01T00:00:00+00:00</time>
        <ele>108.0</ele>
      </trkpt>
      <trkpt lat="38.872" lon="-9.439468">
        <time>1970-01-01T00:00:00+00:00</time>
        <ele>107.0</ele>
      </trkpt>
      <trkpt lat="38.871904" lon="-9.439685">
        <time>1970-01-01T00:00:00+00:00</time>
        <ele>107.0</ele>
      </trkpt>
      <trkpt lat="38.871725" lon="-9.440002">
        <time>1970-01-01T00:00:00+00:00</time>
        <ele>107.0</ele>
      </trkpt>
      <trkpt lat="38.871707" lon="-9.440249">
        <time>1970-01-01T00:00:00+00:00</time>
        <ele>108.0</ele>
      </trkpt>
      <trkpt lat="38.871285" lon="-9.440684">
        <time>1970-01-01T00:00:00+00:00</time>
        <ele>109.0</ele>
      </trkpt>
      <trkpt lat="38.870661" lon="-9.441236">
        <time>1970-01-01T00:00:00+00:00</time>
        <ele>109.0</ele>
      </trkpt>
      <trkpt lat="38.870513" lon="-9.441343">
        <time>1970-01-01T00:00:00+00:00</time>
        <ele>108.0</ele>
      </trkpt>
      <trkpt lat="38.870483" lon="-9.441349">
        <time>1970-01-01T00:00:00+00:00</time>
        <ele>108.0</ele>
      </trkpt>
      <trkpt lat="38.870061" lon="-9.441834">
        <time>1970-01-01T00:00:00+00:00</time>
        <ele>104.0</ele>
      </trkpt>
      <trkpt lat="38.869698" lon="-9.442314">
        <time>1970-01-01T00:00:00+00:00</time>
        <ele>99.0</ele>
      </trkpt>
      <trkpt lat="38.869376" lon="-9.442296">
        <time>1970-01-01T00:00:00+00:00</time>
        <ele>98.0</ele>
      </trkpt>
      <trkpt lat="38.869226" lon="-9.442242">
        <time>1970-01-01T00:00:00+00:00</time>
        <ele>99.0</ele>
      </trkpt>
      <trkpt lat="38.868731" lon="-9.442011">
        <time>1970-01-01T00:00:00+00:00</time>
        <ele>99.0</ele>
      </trkpt>
      <trkpt lat="38.868397" lon="-9.44185">
        <time>1970-01-01T00:00:00+00:00</time>
        <ele>100.0</ele>
      </trkpt>
      <trkpt lat="38.868358" lon="-9.441815">
        <time>1970-01-01T00:00:00+00:00</time>
        <ele>100.0</ele>
      </trkpt>
      <trkpt lat="38.868155" lon="-9.441569">
        <time>1970-01-01T00:00:00+00:00</time>
        <ele>99.0</ele>
      </trkpt>
      <trkpt lat="38.867978" lon="-9.441229">
        <time>1970-01-01T00:00:00+00:00</time>
        <ele>97.0</ele>
      </trkpt>
      <trkpt lat="38.867876" lon="-9.44115">
        <time>1970-01-01T00:00:00+00:00</time>
        <ele>96.0</ele>
      </trkpt>
      <trkpt lat="38.867802" lon="-9.441257">
        <time>1970-01-01T00:00:00+00:00</time>
        <ele>95.0</ele>
      </trkpt>
      <trkpt lat="38.867448" lon="-9.44162">
        <time>1970-01-01T00:00:00+00:00</time>
        <ele>96.0</ele>
      </trkpt>
      <trkpt lat="38.867267" lon="-9.441807">
        <time>1970-01-01T00:00:00+00:00</time>
        <ele>97.0</ele>
      </trkpt>
      <trkpt lat="38.866765" lon="-9.442468">
        <time>1970-01-01T00:00:00+00:00</time>
        <ele>98.0</ele>
      </trkpt>
      <trkpt lat="38.866024" lon="-9.44298">
        <time>1970-01-01T00:00:00+00:00</time>
        <ele>97.0</ele>
      </trkpt>
      <trkpt lat="38.865793" lon="-9.443159">
        <time>1970-01-01T00:00:00+00:00</time>
        <ele>96.0</ele>
      </trkpt>
      <trkpt lat="38.865678" lon="-9.443337">
        <time>1970-01-01T00:00:00+00:00</time>
        <ele>95.0</ele>
      </trkpt>
      <trkpt lat="38.865334" lon="-9.444129">
        <time>1970-01-01T00:00:00+00:00</time>
        <ele>85.0</ele>
      </trkpt>
      <trkpt lat="38.865341" lon="-9.444452">
        <time>1970-01-01T00:00:00+00:00</time>
        <ele>83.0</ele>
      </trkpt>
      <trkpt lat="38.865371" lon="-9.444865">
        <time>1970-01-01T00:00:00+00:00</time>
        <ele>80.0</ele>
      </trkpt>
    </trkseg>
  </trk>
</gpx>
